Location: Angwan Shehu
(11.2514°N, 7.4613°E)
Time: 01:41:30
(UTC+00:00)

deb Explorer IX - All Passes

Search period start: 21 April 2021 00:00
Search period end: 01 May 2021 00:00
Orbit: 541 x 1099 km, 38.8° (Epoch: 20 April)

Date Brightness Start Highest point End Pass type
(mag) Time Alt. Az. Time Alt. Az. Time Alt. Az.
21 Apr - 01:55:48 10° S 01:58:49 18° SE 02:01:41 10° E night (unlit)
21 Apr - 03:41:30 10° WSW 03:45:22 39° NW 03:49:11 10° NNE visible
21 Apr - 10:56:58 10° N 11:00:07 15° NNE 11:03:29 10° ENE daylight
21 Apr - 12:41:23 10° NW 12:47:29 70° NE 12:54:27 10° ESE daylight
21 Apr - 14:29:29 10° W 14:34:45 25° SW 14:40:24 10° S daylight
22 Apr - 01:32:00 10° S 01:35:10 19° SE 01:38:09 10° E night (unlit)
22 Apr - 03:17:49 10° WSW 03:21:46 39° NW 03:25:33 10° NNE visible
22 Apr - 10:33:28 10° N 10:36:22 14° NNE 10:39:27 10° ENE daylight
22 Apr - 12:17:43 10° NW 12:23:39 70° NE 12:30:30 10° ESE daylight
22 Apr - 14:05:47 10° W 14:10:55 24° SW 14:16:26 10° S daylight
23 Apr - 01:08:11 10° S 01:11:31 20° SE 01:14:38 10° E night (unlit)
23 Apr - 02:54:07 10° WSW 02:58:08 39° NW 03:01:57 10° NNE visible
23 Apr - 10:10:01 10° N 10:12:37 13° NNE 10:15:23 10° ENE daylight
23 Apr - 11:54:06 10° NW 11:59:50 70° NE 12:06:32 10° ESE daylight
23 Apr - 13:42:06 10° W 13:47:04 24° SW 13:52:28 10° S daylight
24 Apr - 00:44:20 10° S 00:47:52 20° SE 00:51:07 10° E night (unlit)
24 Apr - 02:30:24 10° WSW 02:34:31 39° NW 02:38:21 10° NNE visible
24 Apr - 09:46:34 10° N 09:48:52 13° NNE 09:51:19 10° ENE daylight
24 Apr - 11:30:28 10° NW 11:36:02 69° NE 11:42:35 10° ESE daylight
24 Apr - 13:18:28 10° W 13:23:15 23° SW 13:28:29 10° S daylight
25 Apr - 00:20:28 10° S 00:24:12 21° SE 00:27:36 10° E night (unlit)
25 Apr - 02:06:38 10° WSW 02:10:53 39° NW 02:14:46 10° NNE visible
25 Apr - 09:23:10 10° N 09:25:09 12° NNE 09:27:13 10° NE daylight
25 Apr - 11:06:52 10° NW 11:12:15 69° NE 11:18:37 10° ESE daylight
25 Apr - 12:54:51 10° W 12:59:26 22° SW 13:04:29 10° S daylight
25 Apr - 23:56:34 10° SSW 00:00:31 22° SE 00:04:05 10° E night (unlit)
26 Apr - 01:42:51 10° WSW 01:47:14 40° NW 01:51:12 10° NNE night (unlit)
26 Apr - 08:59:50 10° NNE 09:01:26 11° NNE 09:03:06 10° NE daylight
26 Apr - 10:43:16 10° NW 10:48:29 68° NE 10:54:40 10° ESE daylight
26 Apr - 12:31:15 10° W 12:35:38 21° SW 12:40:29 10° S daylight
26 Apr - 23:32:39 10° SSW 23:36:50 23° SE 23:40:34 10° E night (unlit)
27 Apr - 01:19:03 10° WSW 01:23:36 40° NW 01:27:38 10° NNE night (unlit)
27 Apr - 08:36:35 10° NNE 08:37:44 11° NNE 08:38:55 10° NE daylight
27 Apr - 10:19:41 10° NW 10:24:44 68° NE 10:30:44 10° ESE daylight
27 Apr - 12:07:40 10° W 12:11:51 21° SW 12:16:28 10° S daylight
27 Apr - 23:08:43 10° SSW 23:13:08 24° SE 23:17:03 10° E night (unlit)
28 Apr - 00:55:13 10° WSW 00:59:56 41° NW 01:04:05 10° NNE night (unlit)
28 Apr - 08:13:37 10° NNE 08:14:02 10° NNE 08:14:28 10° NE daylight
28 Apr - 09:56:07 10° NW 10:01:01 68° NE 10:06:49 10° ESE daylight
28 Apr - 11:44:07 10° W 11:48:05 20° SW 11:52:28 10° S daylight
28 Apr - 22:44:47 10° SSW 22:49:26 26° SE 22:53:32 10° E night (unlit)
29 Apr - 00:31:22 10° WSW 00:36:16 42° NW 00:40:31 10° NNE night (unlit)
29 Apr - 09:32:33 10° NW 09:37:18 67° NE 09:42:53 10° ESE daylight
29 Apr - 11:20:35 10° W 11:24:19 19° SW 11:28:27 10° S daylight
29 Apr - 22:20:50 10° SSW 22:25:42 27° SE 22:29:59 10° E night (unlit)
30 Apr - 00:07:30 10° WSW 00:12:35 43° NW 00:16:58 10° NNE night (unlit)
30 Apr - 09:08:59 10° NW 09:13:35 67° NE 09:19:00 10° ESE daylight
30 Apr - 10:57:04 10° W 11:00:35 18° SW 11:04:27 10° S daylight
30 Apr - 21:56:52 10° SSW 22:01:57 28° SE 22:06:26 10° E night (unlit)
30 Apr - 23:43:36 10° WSW 23:48:52 44° NW 23:53:25 10° NNE night (unlit)
